History for KNYNEWYO585

Bryant Park, New York, NY — Current Conditions
Daily Summary for June 28, 2017
  Current: High: Low: Average:
Temperature: 64.2°F 70.7°F 64.2°F 67.4°F
Dew Point: 49.6°F 50.4°F 48.4°F 49.4°F
Humidity: 59% 59% 46% 53%
Wind Speed: 0.0mph 14.8mph - 0.5mph
Wind Gust: 0.0mph 22.1mph - -
Wind: South - - South
Pressure: 30.13in 30.14in 30.04in -
Precipitation: 0.00in      
Solar Radiation: 17 watts/m^2      
UV Index: 1.0      
Statistics for the rest of the month
    High: Low: Average:
Temperature:   97.9°F 54.1°F 74.1°F
Dew Point:   78.6°F 20.1°F 55.0°F
Humidity:   95.0% 11.0% 55.8%
Wind Speed:   38.3mph from the WSW - 1.6mph
Wind Gust:   45.0mph from the WSW - -
Wind:   - - SE
Pressure:   30.14in 29.60in -
Precipitation:   0.17in    
KNYNEWYO585 Weather Graph
Tabular Data for June 28, 2017
Time Temp. Dew Point Pressure Wind Gust Humidity Rainfall Solar Radiation
00:02 70.7°F 48.9°F 30.04in 0.0mph 46% 0.00in 0.00 watts/m^2
00:07 70.7°F 49.5°F 30.04in 0.0mph 47% 0.00in 0.00 watts/m^2
00:08 70.7°F 49.5°F 30.04in 0.0mph 47% 0.00in 0.00 watts/m^2
00:13 70.5°F 49.5°F 30.05in 7.4mph 47% 0.00in 0.00 watts/m^2
00:18 70.5°F 49.5°F 30.05in 0.0mph 47% 0.00in 0.00 watts/m^2
00:23 70.5°F 49.5°F 30.05in 0.0mph 47% 0.00in 0.00 watts/m^2
00:28 70.5°F 48.7°F 30.05in 0.0mph 46% 0.00in 0.00 watts/m^2
00:33 70.5°F 49.5°F 30.05in 0.0mph 47% 0.00in 0.00 watts/m^2
00:38 70.3°F 49.8°F 30.05in 0.0mph 48% 0.00in 0.00 watts/m^2
00:43 70.2°F 49.6°F 30.06in 7.4mph 48% 0.00in 0.00 watts/m^2
00:48 70.0°F 50.0°F 30.05in 0.0mph 49% 0.00in 0.00 watts/m^2
00:53 69.8°F 50.4°F 30.05in 0.0mph 50% 0.00in 0.00 watts/m^2
00:59 69.4°F 50.0°F 30.06in 0.0mph 50% 0.00in 0.00 watts/m^2
01:04 69.3°F 49.8°F 30.06in 7.4mph 50% 0.00in 0.00 watts/m^2
01:09 69.1°F 50.2°F 30.05in 0.0mph 51% 0.00in 0.00 watts/m^2
01:15 68.9°F 50.0°F 30.05in 7.4mph 51% 0.00in 0.00 watts/m^2
01:20 68.7°F 50.0°F 30.05in 0.0mph 51% 0.00in 0.00 watts/m^2
01:25 68.7°F 50.0°F 30.06in 0.0mph 51% 0.00in 0.00 watts/m^2
01:30 68.5°F 49.8°F 30.05in 0.0mph 51% 0.00in 0.00 watts/m^2
01:35 68.4°F 49.6°F 30.05in 0.0mph 51% 0.00in 0.00 watts/m^2
01:40 68.4°F 49.6°F 30.06in 0.0mph 51% 0.00in 0.00 watts/m^2
01:45 68.2°F 50.0°F 30.06in 7.4mph 52% 0.00in 0.00 watts/m^2
01:50 68.2°F 49.5°F 30.06in 0.0mph 51% 0.00in 0.00 watts/m^2
01:55 68.0°F 49.8°F 30.06in 0.0mph 52% 0.00in 0.00 watts/m^2
02:00 68.0°F 49.8°F 30.06in 0.0mph 52% 0.00in 0.00 watts/m^2
02:05 67.8°F 50.2°F 30.06in 0.0mph 53% 0.00in 0.00 watts/m^2
02:11 67.8°F 49.6°F 30.06in 0.0mph 52% 0.00in 0.00 watts/m^2
02:16 67.6°F 50.0°F 30.06in 7.4mph 53% 0.00in 0.00 watts/m^2
02:21 67.5°F 49.8°F 30.06in 0.0mph 53% 0.00in 0.00 watts/m^2
02:26 67.5°F 49.8°F 30.07in 0.0mph 53% 0.00in 0.00 watts/m^2
02:31 67.3°F 49.6°F 30.06in 0.0mph 53% 0.00in 0.00 watts/m^2
02:36 67.1°F 49.5°F 30.07in 0.0mph 53% 0.00in 0.00 watts/m^2
02:41 67.1°F 49.5°F 30.07in 0.0mph 53% 0.00in 0.00 watts/m^2
02:46 66.9°F 49.3°F 30.07in 0.0mph 53% 0.00in 0.00 watts/m^2
02:51 66.9°F 49.3°F 30.07in 7.4mph 53% 0.00in 0.00 watts/m^2
02:56 66.7°F 49.1°F 30.08in 0.0mph 53% 0.00in 0.00 watts/m^2
03:01 66.7°F 49.1°F 30.07in 0.0mph 53% 0.00in 0.00 watts/m^2
03:07 66.6°F 49.5°F 30.08in 0.0mph 54% 0.00in 0.00 watts/m^2
03:12 66.4°F 49.3°F 30.08in 0.0mph 54% 0.00in 0.00 watts/m^2
03:17 66.4°F 49.3°F 30.08in 0.0mph 54% 0.00in 0.00 watts/m^2
03:22 66.2°F 49.6°F 30.08in 0.0mph 55% 0.00in 0.00 watts/m^2
03:27 66.0°F 48.9°F 30.09in 0.0mph 54% 0.00in 0.00 watts/m^2
03:32 66.0°F 48.9°F 30.08in 0.0mph 54% 0.00in 0.00 watts/m^2
03:37 66.0°F 49.5°F 30.08in 0.0mph 55% 0.00in 0.00 watts/m^2
03:42 66.0°F 49.5°F 30.08in 0.0mph 55% 0.00in 0.00 watts/m^2
03:47 66.0°F 49.5°F 30.09in 0.0mph 55% 0.00in 0.00 watts/m^2
03:52 65.8°F 49.3°F 30.09in 0.0mph 55% 0.00in 0.00 watts/m^2
03:57 66.0°F 48.9°F 30.09in 0.0mph 54% 0.00in 0.00 watts/m^2
04:03 66.0°F 48.9°F 30.09in 7.4mph 54% 0.00in 0.00 watts/m^2
04:04 65.8°F 48.7°F 30.08in 7.4mph 54% 0.00in 0.00 watts/m^2
04:09 65.8°F 49.3°F 30.09in 0.0mph 55% 0.00in 0.00 watts/m^2
04:14 65.8°F 49.3°F 30.09in 0.0mph 55% 0.00in 0.00 watts/m^2
04:19 65.8°F 49.3°F 30.09in 0.0mph 55% 0.00in 0.00 watts/m^2
04:24 65.8°F 49.3°F 30.09in 0.0mph 55% 0.00in 0.00 watts/m^2
04:29 65.7°F 49.1°F 30.09in 7.4mph 55% 0.00in 0.00 watts/m^2
04:35 65.7°F 49.1°F 30.09in 7.4mph 55% 0.00in 0.00 watts/m^2
04:40 65.5°F 48.9°F 30.09in 0.0mph 55% 0.00in 0.00 watts/m^2
04:45 65.5°F 48.9°F 30.10in 0.0mph 55% 0.00in 0.00 watts/m^2
04:50 65.3°F 49.3°F 30.10in 14.8mph 56% 0.00in 0.00 watts/m^2
04:55 65.1°F 49.1°F 30.11in 7.4mph 56% 0.00in 0.00 watts/m^2
05:00 64.9°F 48.9°F 30.10in 0.0mph 56% 0.00in 0.00 watts/m^2
05:05 64.9°F 48.9°F 30.10in 0.0mph 56% 0.00in 0.00 watts/m^2
05:07 64.9°F 48.9°F 30.10in 0.0mph 56% 0.00in 0.00 watts/m^2
05:12 64.8°F 48.7°F 30.11in 7.4mph 56% 0.00in 0.00 watts/m^2
05:17 64.8°F 48.7°F 30.11in 0.0mph 56% 0.00in 0.00 watts/m^2
05:23 64.6°F 48.6°F 30.11in 0.0mph 56% 0.00in 0.42 watts/m^2
05:28 64.6°F 48.6°F 30.11in 0.0mph 56% 0.00in 1.19 watts/m^2
05:33 64.6°F 48.6°F 30.11in 7.4mph 56% 0.00in 2.31 watts/m^2
05:38 64.6°F 49.1°F 30.11in 0.0mph 57% 0.00in 3.56 watts/m^2
05:43 64.6°F 49.1°F 30.11in 7.4mph 57% 0.00in 4.45 watts/m^2
05:48 64.4°F 48.9°F 30.12in 0.0mph 57% 0.00in 5.75 watts/m^2
05:53 64.4°F 48.9°F 30.12in 0.0mph 57% 0.00in 6.90 watts/m^2
05:59 64.4°F 48.9°F 30.11in 0.0mph 57% 0.00in 8.22 watts/m^2
06:04 64.4°F 49.3°F 30.12in 0.0mph 58% 0.00in 9.51 watts/m^2
06:07 64.4°F 49.3°F 30.12in 7.4mph 58% 0.00in 10.33 watts/m^2
06:12 64.4°F 48.9°F 30.13in 0.0mph 57% 0.00in 11.41 watts/m^2
06:17 64.4°F 48.9°F 30.12in 0.0mph 57% 0.00in 12.53 watts/m^2
06:22 64.4°F 49.3°F 30.12in 0.0mph 58% 0.00in 13.73 watts/m^2
06:27 64.4°F 49.8°F 30.12in 7.4mph 59% 0.00in 13.29 watts/m^2
06:32 64.4°F 49.8°F 30.13in 0.0mph 59% 0.00in 14.17 watts/m^2
06:37 64.2°F 49.6°F 30.13in 0.0mph 59% 0.00in 15.00 watts/m^2
06:43 64.2°F 49.6°F 30.14in 0.0mph 59% 0.00in 16.63 watts/m^2
Comma Delimited File
Powered by Weather Underground, Inc.